Simultaneous Nadir Overpasses (SNOs) Predictions

Prediction of SNOs over PacNW region [( 10.00, 139.50) to ( 22.70, 165.60)] between NOAA-19 and NPP Satellites:

Table of predicted SNOs over PacNW region for the next 30.0 days since TLE Epoch: 9/20/2013
Index Date (NOAA-19) Time (NOAA-19) NOAA-19 Lat,Lon Date (NPP) Time (NPP) NPP Lat,Lon Distance(km) Time Diff (sec)
1 09/22/2013 03:02:25 11.42, 157.90 09/22/2013 03:05:38 10.35, 153.38 507.65 193
2 09/22/2013 15:39:03 19.44, 153.71 09/22/2013 15:38:08 20.21, 150.10 387.28 55
3 09/23/2013 02:54:39 22.65, 157.93 09/23/2013 02:51:02 25.87, 154.38 507.11 217
4 10/04/2013 15:08:17 22.61, 162.05 10/04/2013 15:11:52 23.88, 157.36 500.00 215
5 10/05/2013 02:24:50 22.69, 165.46 10/05/2013 02:24:41 21.92, 161.73 392.87 9
6 10/05/2013 04:06:54 22.67, 139.94 10/05/2013 04:06:11 21.92, 136.36 378.56 43
7 10/05/2013<
